GFSNW_sfc_temp_111.txt.gz
Temp
49 50 50 50 51 50 46 40 32 45 47 33 27 28 37 45 42 44 41 39 34 28 25 30 25 27 35 45 44 34 42 35 29 36 44 44 40 39 39 28 28 31 28 25
49 50 50 50 50 50 41 37 37 45 45 27 26 36 40 42 39 39 39 36 36 32 24 24 26 26 39 42 41 38 40 35 27 32 37 40 36 39 42 38 36 29 25 25
50 50 50 50 50 50 42 37 30 37 38 34 34 33 35 35 42 39 40 38 37 31 27 31 25 26 37 42 41 45 42 36 31 26 30 35 32 36 40 36 30 28 28 28
50 49 49 50 50 50 42 36 32 38 28 30 33 34 35 32 32 39 39 35 35 32 23 28 27 31 34 39 42 42 39 30 33 33 34 34 32 33 37 34 33 28 28 27
49 50 49 50 50 49 40 33 34 35 34 37 35 34 32 33 36 36 34 33 36 33 30 31 30 33 32 31 37 37 40 30 32 30 32 32 28 31 31 33 32 31 30 27
50 49 49 49 49 47 38 38 39 37 33 33 31 30 35 36 38 39 39 36 33 33 35 37 39 40 40 39 35 33 34 32 31 27 36 33 26 28 29 31 32 33 28 30
50 49 49 49 49 46 40 38 37 33 27 32 34 37 38 36 37 35 38 38 33 39 43 40 40 38 38 38 38 41 34 33 33 29 31 20 28 33 34 31 31 33 33 30
49 49 49 49 49 48 40 38 37 32 25 32 36 37 36 36 37 35 36 38 41 40 36 32 32 32 34 39 42 41 41 35 31 28 26 28 30 30 29 30 27 32 32 32
48 48 49 49 49 48 40 38 38 34 30 29 38 33 35 29 28 31 35 40 40 38 32 30 24 24 30 30 35 42 40 37 31 30 24 20 26 32 37 37 24 32 31 30
48 48 48 49 49 48 41 37 38 35 28 33 35 31 32 34 30 28 31 33 34 35 25 24 23 23 34 27 28 29 30 30 26 27 25 26 30 33 37 26 24 33 32 30
48 48 48 48 48 48 42 37 38 35 29 32 37 39 34 33 30 25 31 28 29 27 23 25 24 24 30 30 33 31 28 26 24 27 22 18 31 34 28 31 34 33 33 32
48 48 48 48 48 48 44 35 38 38 32 33 36 38 41 40 39 32 31 31 32 31 25 25 26 26 29 30 26 37 26 29 26 26 24 31 34 32 34 35 32 34 33 35
47 48 48 48 48 48 44 35 35 34 28 31 34 37 41 43 42 42 31 32 36 33 32 25 24 24 30 26 27 31 33 36 27 26 30 31 32 33 34 35 32 32 36 36
47 47 48 48 48 47 44 36 36 36 32 25 33 45 42 46 43 42 41 39 38 36 32 28 23 24 35 30 33 29 32 34 30 28 30 31 31 31 33 34 34 31 32 31
47 47 48 48 48 46 41 37 37 39 33 27 29 37 43 46 44 42 41 39 35 31 30 25 25 30 31 32 32 30 33 30 27 21 31 30 28 32 33 31 30 30 28 26
47 47 47 47 46 44 37 28 38 40 38 28 24 34 38 42 42 41 39 38 34 32 30 28 29 34 32 27 27 32 34 35 34 31 32 28 30 31 33 30 30 29 28 27
47 47 47 46 45 38 33 30 40 44 39 29 24 27 37 45 40 36 36 40 33 33 30 29 29 31 34 28 26 33 35 35 34 34 34 31 30 28 31 30 29 29 26 26
46 47 46 46 46 43 37 42 45 42 33 32 22 29 35 41 34 31 33 30 30 31 29 30 30 32 30 24 32 36 37 37 36 35 36 32 30 30 28 29 27 25 24 24
47 46 45 38 34 34 36 46 45 41 33 23 23 23 26 36 33 31 31 30 22 30 23 28 30 28 23 27 32 35 36 35 34 35 34 32 29 26 26 26 25 22 21 21
45 38 31 22 32 44 44 37 31 33 34 35 25 27 25 32 26 24 30 26 24 23 28 31 29 26 30 30 31 31 29 31 34 28 26 26 24 24 23 21 22 21 18 15
33 27 30 35 44 35 32 29 28 26 27 31 30 28 28 33 25 25 27 22 24 22 27 26 20 23 23 28 29 29 30 29 28 28 29 29 27 24 23 22 22 20 18 14
35 36 38 39 35 32 29 27 29 28 24 27 26 27 30 32 33 26 27 25 23 19 30 27 15 19 24 27 28 28 26 26 25 26 25 25 25 24 23 20 18 15 15 7
36 35 32 32 29 23 21 16 19 21 24 24 25 27 29 30 32 30 29 19 17 30 21 18 17 23 26 27 26 23 24 24 23 23 23 23 21 21 19 12 7 6 5 -1
27 22 23 24 22 25 19 21 21 26 24 25 26 28 33 24 23 20 17 21 28 19 12 19 20 22 25 25 24 22 15 14 14 12 12 11 11 5 4 4 2 4 5 0
23 24 15 24 25 27 31 32 29 31 24 28 26 26 27 21 23 29 28 25 18 17 16 15 17 23 22 21 19 15 13 9 9 6 8 3 3 7 5 3 2 6 0 -1
28 29 22 27 28 28 32 32 31 32 24 31 29 25 19 18 21 25 26 24 15 17 15 19 21 19 15 14 15 12 10 10 9 8 8 8 5 7 7 6 6 0 1 -1
28 23 27 29 28 26 32 32 32 32 27 25 25 19 20 25 26 24 23 21 16 21 23 19 18 18 13 12 12 11 12 12 10 9 11 11 12 10 14 12 10 11 14 6

GFSNW_sfc_temp_114.txt.gz
Temp
51 51 50 50 50 50 47 39 32 44 45 31 28 29 36 44 41 43 40 38 34 29 25 25 20 24 33 41 40 33 38 34 27 33 44 43 39 36 37 29 27 30 27 22
50 50 49 49 49 49 41 35 36 44 43 25 28 36 40 41 39 39 38 36 35 31 23 18 24 25 37 39 38 34 37 33 26 29 35 39 35 38 40 38 35 27 24 23
49 49 48 48 49 51 44 37 30 34 36 35 35 34 35 35 42 39 40 37 35 30 27 30 23 24 36 39 40 44 42 35 31 24 28 31 29 35 38 36 28 26 26 26
49 48 48 49 50 50 43 36 32 37 29 31 34 36 35 33 33 39 39 34 34 32 22 27 26 29 33 38 42 40 38 31 32 32 32 32 29 31 33 30 31 25 25 25
48 48 49 50 50 49 40 33 34 36 35 36 35 36 33 33 35 36 34 33 34 33 29 31 28 31 30 30 36 35 38 30 32 31 34 33 27 29 31 31 31 28 28 25
46 48 49 49 49 48 38 37 40 38 35 34 33 31 33 35 37 37 39 36 33 32 34 35 36 37 37 37 33 31 33 33 30 27 34 32 25 26 27 29 31 31 26 28
47 48 48 49 49 47 40 38 38 34 29 34 34 36 37 36 37 34 37 36 33 37 39 38 37 34 35 35 36 37 32 33 33 29 30 20 27 35 34 30 29 32 30 29
47 48 49 49 48 47 40 38 38 35 28 35 36 36 35 35 36 35 35 37 39 38 34 31 31 31 32 34 40 37 38 33 30 27 25 27 30 29 28 28 26 30 31 31
48 48 49 49 48 48 40 37 38 37 33 32 38 33 35 30 30 31 34 37 38 36 31 29 24 23 29 28 32 41 37 36 30 28 24 18 25 31 36 35 24 31 31 29
48 48 49 49 49 48 41 37 38 38 31 34 35 32 32 33 30 27 30 32 32 33 24 23 23 22 31 24 27 28 29 30 26 26 24 25 29 32 36 25 22 31 30 27
48 48 48 48 48 47 42 37 38 38 31 32 37 39 33 32 30 25 30 27 28 26 22 25 24 24 27 25 31 30 26 25 24 27 23 20 32 33 28 30 32 32 31 31
47 48 48 48 48 48 45 36 38 38 34 34 36 38 39 40 38 31 30 30 31 30 24 25 25 24 26 29 26 34 26 29 26 26 24 31 33 31 33 33 33 32 33 32
47 48 48 48 48 48 44 36 35 35 31 33 35 37 40 42 41 40 31 31 35 31 31 24 23 24 29 25 27 29 32 35 27 27 29 30 31 32 34 33 30 33 36 32
47 47 47 48 48 47 44 37 36 35 32 29 33 44 40 42 42 41 40 37 36 34 31 27 22 24 32 28 31 29 31 33 29 27 29 30 30 31 31 31 32 29 29 29
47 47 47 47 47 46 42 38 37 38 34 28 31 37 41 43 42 41 40 38 34 30 29 24 24 29 29 33 31 29 33 30 28 25 31 29 29 32 33 30 28 28 26 25
47 47 47 47 46 44 37 29 38 40 37 30 26 34 37 39 40 39 38 36 32 31 29 27 28 32 31 25 27 32 33 34 35 31 32 29 30 31 31 28 27 27 26 24
47 47 46 46 46 40 33 31 37 43 38 29 26 28 36 42 40 36 35 37 31 31 29 28 29 30 31 27 25 32 34 33 33 34 34 29 30 27 29 28 27 27 24 24
46 46 46 46 46 43 39 42 44 40 33 32 24 29 34 41 34 32 31 31 30 30 28 29 29 31 32 24 32 35 35 35 35 34 34 30 29 28 26 26 26 24 22 23
46 46 45 38 34 33 38 45 43 38 33 25 22 24 25 38 32 30 30 30 22 29 22 27 29 25 24 28 32 34 35 33 32 33 31 30 28 25 26 25 24 22 21 20
44 37 32 24 34 44 42 36 31 30 31 31 23 26 29 31 28 24 26 25 23 22 28 30 29 25 29 29 28 28 29 31 31 27 25 26 25 24 23 22 22 20 17 14
33 29 30 36 43 35 31 22 23 26 24 27 27 28 29 32 25 24 26 21 24 22 26 26 20 24 27 28 28 29 29 29 28 29 30 31 28 24 22 21 21 19 17 12
35 36 39 37 34 29 26 26 29 26 24 26 25 27 30 34 32 25 28 23 23 18 30 26 14 18 24 26 28 28 28 26 25 26 25 26 26 24 22 20 17 15 14 6
35 34 29 28 26 20 22 17 21 22 22 23 24 27 28 31 33 27 30 20 15 29 20 17 18 21 25 25 26 24 24 24 24 23 23 22 20 20 18 12 7 6 4 -2
26 22 19 21 22 26 19 19 20 23 22 24 25 27 33 24 26 14 15 19 29 22 12 18 15 21 22 24 24 21 14 15 15 12 12 11 11 5 3 3 0 2 4 -2
26 24 20 24 25 27 27 27 29 31 23 25 26 25 26 19 21 28 26 25 17 16 16 15 14 22 22 21 20 17 14 10 9 6 8 5 5 9 4 1 1 4 -2 -2
27 29 21 26 27 27 32 31 31 31 24 30 29 24 17 17 19 19 20 24 14 16 13 16 17 19 18 17 16 13 10 9 8 8 8 8 6 7 6 4 4 -1 0 -1
25 21 25 28 28 26 31 32 32 31 32 21 24 18 18 24 18 18 22 23 15 18 23 20 15 20 15 13 11 10 11 11 10 8 9 9 10 9 13 12 9 10 13 5

GFSNW_sfc_temp_117.txt.gz
Temp
52 54 55 51 50 49 46 37 31 42 47 35 35 32 39 44 42 45 42 39 36 32 29 31 26 30 35 44 42 35 40 34 28 36 46 47 44 40 37 29 29 33 27 23
53 54 52 50 49 50 41 34 34 44 45 29 30 38 40 42 41 41 40 37 37 33 28 25 28 30 40 41 40 38 38 33 29 35 39 42 37 40 39 37 35 30 26 24
53 53 50 50 50 51 46 37 31 35 37 37 37 36 37 36 43 41 41 38 37 34 31 33 29 30 38 41 41 44 43 35 30 26 28 32 29 32 35 35 29 25 25 25
53 51 50 49 51 52 43 37 33 39 29 32 36 38 36 35 34 41 42 37 37 35 28 31 29 32 36 40 42 42 38 30 32 33 32 33 30 28 31 30 32 27 25 25
51 50 49 50 50 49 39 33 35 38 38 38 37 37 35 36 36 38 36 36 36 37 33 34 31 35 35 34 39 37 39 30 32 31 34 33 28 29 31 31 30 28 28 25
49 49 49 50 50 48 38 38 41 40 37 35 35 33 36 37 39 39 41 39 37 35 37 39 40 41 41 41 37 34 32 31 31 29 33 33 26 27 28 30 31 32 28 28
49 49 49 49 49 46 42 41 40 35 30 37 37 37 39 37 39 36 39 39 38 40 42 41 40 37 37 37 37 40 32 32 33 31 30 21 28 33 33 30 30 32 31 30
47 47 47 48 48 48 41 39 40 36 32 37 36 37 37 38 39 37 37 40 41 41 39 36 34 34 35 35 38 37 37 33 30 28 27 28 29 30 30 29 27 31 30 32
47 48 48 48 48 48 41 38 40 40 35 34 41 37 39 33 33 35 36 40 41 40 37 34 28 25 31 30 33 40 38 37 32 30 25 22 26 31 35 36 26 32 32 30
46 48 48 48 48 48 42 38 39 41 32 36 39 35 35 36 35 32 35 35 37 38 32 30 28 28 33 27 28 29 32 32 27 27 26 26 30 33 36 25 25 32 32 31
48 48 48 48 48 48 43 38 39 41 34 36 40 41 36 35 36 32 34 33 33 32 28 30 28 29 31 29 32 31 28 26 26 27 24 21 32 33 30 30 33 33 33 32
48 48 48 48 48 48 46 37 39 40 37 36 39 40 41 43 41 35 34 34 34 35 30 31 31 29 31 30 27 36 28 31 27 26 25 31 33 31 33 36 34 33 33 33
48 48 48 48 49 48 44 37 37 39 38 38 39 37 42 45 43 44 35 35 37 35 36 33 31 29 34 29 29 31 33 36 29 28 30 30 32 33 33 33 32 35 35 32
48 48 48 48 48 48 44 38 38 39 37 32 35 45 41 44 45 43 42 39 39 38 37 34 32 32 36 32 32 32 33 34 30 28 29 30 31 32 33 32 33 32 32 31
48 48 48 48 47 47 44 41 40 40 38 32 35 40 42 44 44 42 42 40 38 37 35 33 32 35 35 34 35 31 35 31 29 28 32 32 30 32 34 31 30 30 30 27
47 47 47 47 46 45 40 33 41 42 39 35 30 37 39 41 42 41 40 39 37 37 36 33 35 36 36 30 28 32 33 34 35 32 33 32 32 32 33 30 29 29 28 28
46 47 47 47 46 42 35 34 39 43 40 34 31 32 39 43 41 39 38 39 36 37 35 34 35 36 36 32 28 32 33 33 33 35 34 30 32 30 31 30 29 28 27 27
47 47 47 46 47 44 40 42 44 42 35 35 29 30 35 42 36 35 35 35 35 34 33 34 35 36 36 28 32 34 35 36 35 34 36 34 31 30 29 29 29 26 25 25
46 46 45 39 36 37 39 45 43 39 37 29 28 28 27 39 34 34 34 34 30 34 32 33 34 30 28 31 33 34 35 35 32 32 32 31 30 28 28 28 26 25 24 23
45 39 33 29 35 44 42 37 32 32 33 33 28 31 30 35 31 30 31 30 29 28 32 35 31 28 30 30 34 35 35 35 34 29 27 28 27 27 26 26 25 24 22 19
34 30 30 37 43 37 33 27 27 28 27 31 30 32 32 35 31 29 30 28 29 25 30 30 26 28 29 31 31 32 34 34 33 34 34 33 32 28 25 23 23 22 20 17
37 37 40 37 33 29 27 26 29 28 26 29 28 31 34 35 35 31 30 28 28 23 32 28 23 27 28 30 30 30 31 31 30 31 30 30 29 28 25 23 21 19 17 13
37 33 30 30 28 20 19 18 23 23 27 28 30 28 33 35 35 31 32 25 23 31 26 24 27 26 28 29 29 27 28 28 27 26 26 25 24 24 22 16 14 13 11 7
28 24 20 21 22 23 22 24 25 27 27 28 31 29 32 30 30 25 23 26 30 24 19 24 27 24 25 26 26 24 20 19 20 19 18 16 15 12 12 12 11 11 12 7
26 26 21 23 26 29 29 27 30 31 28 30 30 30 30 25 24 27 28 26 21 23 24 27 24 24 24 23 23 20 18 15 14 15 14 11 11 13 11 9 11 12 8 9
29 27 24 26 27 28 31 30 30 31 29 30 32 26 23 23 24 23 21 24 20 25 25 25 22 23 21 21 20 19 16 16 14 14 14 13 12 14 16 12 13 10 12 11
27 24 26 28 28 27 30 33 32 29 32 26 28 22 22 26 23 22 26 24 26 25 25 24 22 23 21 18 16 14 15 15 15 14 15 15 15 15 17 18 19 16 18 12

GFSNW_sfc_temp_120.txt.gz
Temp
53 53 53 53 54 50 47 39 32 41 46 33 35 36 45 47 49 51 46 46 42 39 35 38 34 38 44 51 48 41 44 39 36 43 52 52 51 44 39 32 34 37 32 27
52 52 53 52 53 50 43 36 33 41 43 29 32 40 44 45 44 46 45 41 43 41 34 31 35 37 46 48 46 44 45 39 35 42 46 49 41 42 41 38 35 31 29 26
52 52 52 52 52 52 50 36 28 34 35 42 37 38 39 39 45 44 45 42 43 40 37 41 34 35 44 47 47 45 45 41 34 32 32 36 32 35 39 35 32 30 30 27
51 52 52 52 52 53 49 38 35 41 30 32 39 43 42 39 35 43 46 40 43 42 33 37 36 40 43 46 45 46 45 32 37 37 35 37 34 31 34 32 33 31 28 27
53 53 52 52 51 54 47 34 37 45 44 39 38 41 39 40 42 44 41 40 44 45 39 40 37 42 42 41 45 44 44 34 34 32 37 36 31 31 35 35 33 30 32 27
53 52 52 52 51 55 46 42 50 45 39 37 38 40 44 44 44 41 47 46 43 41 44 48 49 50 47 47 43 41 38 34 32 33 36 37 31 28 30 32 36 35 31 31
52 51 51 50 53 56 49 47 48 40 32 39 41 44 46 44 45 40 44 47 44 46 50 50 48 46 46 46 45 47 37 34 34 35 34 26 30 38 39 35 35 37 36 34
50 50 50 52 53 51 49 47 46 43 34 41 40 41 42 44 45 42 43 45 47 50 47 42 39 39 39 41 44 44 44 35 34 31 33 29 31 33 34 33 30 35 34 35
49 49 49 48 48 48 43 41 51 48 38 37 45 42 43 39 40 40 40 44 48 47 46 41 34 33 39 35 36 44 42 41 35 35 29 26 31 35 37 37 28 36 37 35
48 48 48 48 47 48 47 41 47 49 35 42 46 42 42 47 45 41 41 41 42 46 41 36 36 35 41 34 34 32 35 35 32 32 31 30 34 34 36 27 27 38 39 39
47 47 47 48 48 49 49 41 46 49 42 40 46 47 42 44 47 39 41 40 39 40 37 39 38 37 39 36 39 37 36 33 32 33 30 25 36 34 30 33 38 39 39 38
47 47 47 48 49 49 50 44 46 52 48 43 48 46 48 52 51 45 43 42 43 45 41 43 42 37 39 39 30 42 32 37 34 32 30 34 34 33 37 41 37 38 39 40
47 47 48 49 49 50 51 46 52 53 44 46 48 43 49 51 50 54 43 44 44 43 47 44 42 36 45 35 36 36 37 41 34 32 31 32 32 34 37 40 38 40 41 39
48 48 48 48 48 49 52 48 49 54 49 37 39 50 45 50 53 52 52 46 46 47 50 44 42 39 44 36 38 39 39 39 34 29 31 32 32 33 35 36 37 37 39 38
48 48 48 48 48 49 51 50 47 50 48 37 38 46 47 51 52 50 51 49 48 48 44 42 40 45 42 42 41 36 40 36 33 31 33 33 32 33 34 34 35 36 35 34
47 48 48 47 47 48 55 39 52 53 57 43 35 43 44 48 50 48 47 48 47 50 47 43 46 44 44 36 33 36 37 39 40 34 36 33 33 33 37 35 36 36 35 35
47 47 47 47 48 49 43 42 47 47 52 42 37 36 43 47 48 46 47 48 47 49 46 45 46 44 45 37 31 37 36 39 40 40 37 31 34 33 37 36 35 34 34 34
47 47 47 47 48 49 45 47 46 49 46 47 35 33 38 46 42 41 46 45 48 46 45 45 44 44 43 32 37 40 40 40 40 40 40 40 38 37 35 36 35 33 32 31
46 46 47 50 45 43 45 45 47 49 47 37 37 34 30 45 41 43 44 47 37 45 41 43 44 39 32 36 38 40 41 40 38 39 39 38 36 35 34 34 34 32 30 29
46 48 43 33 41 44 46 47 41 41 42 43 36 42 33 43 40 38 39 42 37 34 40 44 38 38 37 41 44 44 43 42 41 36 34 35 34 34 32 32 32 30 28 25
44 36 34 43 44 46 42 33 35 37 34 40 39 41 36 44 37 35 40 36 38 32 35 35 34 34 35 38 42 44 45 43 43 43 41 40 38 34 31 29 29 28 26 24
43 42 44 44 40 36 32 30 33 34 31 36 36 38 39 38 45 38 38 33 35 28 37 33 30 35 37 37 37 41 42 41 40 41 39 38 36 35 32 30 28 26 23 19
46 41 34 38 34 28 27 23 27 28 33 35 37 33 40 41 40 34 36 29 30 36 30 31 36 35 37 38 37 36 37 37 37 35 36 35 33 32 29 24 22 20 18 17
35 32 26 29 27 29 30 31 32 32 35 37 37 33 38 37 34 33 29 32 35 28 26 29 36 32 33 35 35 32 28 28 28 28 27 24 22 20 20 20 19 19 17 16
32 34 25 28 31 32 32 33 34 35 39 39 37 37 40 34 30 34 32 28 27 30 32 35 34 32 31 30 30 28 26 24 24 24 22 19 18 19 18 18 21 21 18 17
35 32 29 32 32 31 32 32 32 36 38 40 41 34 31 29 32 29 28 29 28 32 35 33 32 30 30 29 28 26 25 25 24 23 22 21 20 20 21 20 20 18 19 18
32 29 31 32 32 30 32 34 34 38 38 33 38 30 28 35 31 28 35 31 34 33 31 31 32 30 28 27 25 22 23 23 24 23 23 23 24 23 23 22 23 23 24 20

GFSNW_sfc_temp_123.txt.gz
Temp
53 53 54 54 54 52 49 42 34 45 47 33 35 37 41 49 51 57 52 54 50 47 43 43 38 43 49 57 54 46 52 43 39 48 57 57 54 48 47 33 36 34 34 28
53 53 53 54 53 52 45 38 34 44 44 33 34 42 43 48 46 50 51 48 48 45 36 33 38 40 53 54 51 48 48 42 38 44 49 53 47 48 46 42 39 32 29 28
52 52 53 53 53 52 52 36 30 33 34 42 45 39 42 42 53 52 50 48 45 41 40 45 36 40 49 52 51 47 47 44 39 38 40 43 36 41 42 39 30 34 32 29
52 52 52 53 52 52 50 39 38 45 29 32 40 45 44 39 39 50 48 41 43 42 36 39 38 43 48 50 49 48 48 35 38 42 43 42 37 32 37 35 38 32 30 29
51 52 52 52 53 52 44 36 47 50 50 43 41 42 42 40 43 45 41 41 42 42 38 40 38 45 45 45 50 48 48 34 35 33 42 41 32 33 38 37 35 33 35 29
50 50 51 51 52 50 43 50 59 52 46 42 37 43 45 45 48 47 48 45 42 41 46 53 54 55 54 52 48 46 42 38 34 35 43 40 32 31 34 37 41 40 36 35
50 50 51 51 51 51 51 54 57 47 41 45 42 47 47 47 47 42 46 50 45 51 56 54 52 50 50 50 50 52 39 37 39 37 38 26 32 45 45 41 41 43 39 37
51 52 52 52 50 51 55 54 52 51 43 47 45 45 46 47 47 44 48 52 55 55 51 44 40 40 42 45 49 49 50 39 35 34 36 31 33 39 40 39 35 41 39 39
51 51 52 52 51 52 55 55 58 55 47 45 51 46 46 41 43 46 45 49 55 53 48 43 36 34 40 38 41 48 47 44 36 37 31 28 33 40 44 44 32 41 41 39
50 50 51 51 50 53 53 48 57 57 44 53 50 43 44 49 46 42 42 42 44 50 43 38 38 39 48 38 35 33 36 37 33 35 34 33 37 39 40 29 31 41 43 43
49 50 49 49 50 52 54 45 54 54 44 45 49 49 46 47 48 39 44 42 44 43 39 41 42 41 43 41 45 42 39 37 35 37 33 29 39 35 31 37 41 42 41 41
48 48 49 50 51 52 57 46 50 53 44 40 50 50 54 56 57 51 49 48 46 47 44 46 48 40 43 43 33 47 36 44 38 36 32 36 35 36 40 41 39 40 41 41
47 48 49 49 51 52 53 48 51 48 40 41 45 45 53 58 60 62 48 52 51 48 51 50 48 41 48 38 40 39 41 46 35 35 34 35 35 36 38 38 38 42 43 41
47 48 48 50 52 53 55 53 56 54 50 38 42 55 49 58 59 58 59 53 54 52 53 47 44 42 48 43 44 41 42 43 37 32 34 35 34 35 36 36 39 41 43 42
48 49 50 51 51 52 55 56 56 59 51 40 42 51 54 57 57 55 55 53 51 50 47 44 45 48 45 43 43 37 44 39 35 34 37 36 33 34 36 34 36 39 39 38
48 48 49 49 50 55 57 41 59 63 60 46 37 48 49 54 55 53 52 53 52 53 50 48 50 49 46 40 34 40 41 43 44 37 38 34 33 35 35 34 38 40 39 39
48 48 48 48 49 54 52 47 53 52 61 45 39 39 47 52 52 52 50 52 51 53 50 49 49 47 48 40 38 39 40 43 42 41 38 32 34 33 39 41 39 39 39 39
48 48 49 49 50 51 49 49 50 53 55 52 38 35 41 51 45 43 52 48 51 50 49 49 48 48 47 35 40 41 42 43 40 41 43 40 41 41 39 40 39 36 35 35
48 49 51 54 51 49 49 45 50 59 54 42 40 35 31 49 45 46 48 52 40 49 43 47 49 41 35 40 42 41 41 40 39 43 41 40 39 38 38 38 38 36 34 34
49 53 46 36 47 44 48 53 45 47 49 50 41 46 35 47 44 41 42 46 40 36 43 48 41 39 44 48 47 45 44 46 46 39 37 39 37 37 37 36 37 35 32 30
50 39 39 50 47 54 48 36 39 42 38 44 43 45 39 50 39 38 45 39 41 33 37 37 36 36 40 47 45 46 48 48 47 47 45 43 41 38 36 34 34 33 31 28
47 48 51 53 46 41 36 33 38 40 35 42 39 42 45 44 50 40 41 35 38 29 43 34 32 38 44 44 43 44 47 47 45 46 44 43 41 39 37 34 32 30 29 24
53 46 36 43 38 30 31 25 32 31 35 38 39 36 43 45 44 38 39 31 31 39 32 33 38 41 43 42 43 43 45 44 43 42 42 41 39 38 34 29 26 23 21 21
39 36 28 32 30 33 33 36 35 35 39 41 41 40 41 39 35 34 30 34 37 30 28 33 39 38 38 39 40 39 32 32 33 32 32 29 27 25 25 24 23 21 20 20
35 37 28 30 34 35 34 35 36 39 44 43 41 42 43 36 31 36 35 29 29 34 34 35 35 36 36 35 36 32 30 29 29 29 25 23 22 22 22 23 25 24 21 20
38 35 31 35 33 31 33 33 33 42 43 46 45 38 33 31 34 31 30 32 31 34 33 34 34 33 32 32 31 30 30 30 29 27 25 24 23 23 24 25 24 22 23 21
34 31 34 34 34 32 33 36 37 44 43 35 41 32 30 39 34 32 40 33 33 33 32 34 34 32 31 31 30 28 29 29 28 27 27 26 28 26 25 24 24 26 26 24

GFSNW_sfc_temp_126.txt.gz
Temp
53 53 54 54 54 53 50 43 35 45 49 33 35 36 45 48 52 56 54 53 51 45 43 43 35 40 46 59 56 46 51 45 36 45 58 59 55 50 47 35 35 36 32 29
52 53 53 53 54 52 46 39 35 45 47 30 34 44 45 48 48 51 51 49 51 47 38 34 42 45 55 56 52 46 49 40 34 42 50 52 49 50 47 44 40 31 28 29
52 52 52 53 53 53 50 37 31 34 37 40 41 41 41 42 50 51 54 51 52 43 38 44 38 42 49 52 49 48 47 42 37 31 35 43 40 42 44 41 31 33 34 28
52 52 52 52 53 52 47 40 36 43 29 31 35 41 43 40 40 50 52 48 49 43 37 41 40 44 45 49 49 47 46 34 40 41 43 44 41 36 39 37 37 32 31 30
51 52 52 52 52 53 44 34 43 48 45 43 35 38 40 42 45 48 46 45 47 48 42 42 39 43 43 43 48 44 47 35 33 33 41 43 37 33 35 39 37 34 35 30
51 51 51 51 52 52 42 45 53 52 46 44 37 36 43 45 49 48 53 50 47 44 46 50 51 52 51 51 47 43 43 39 34 32 44 41 32 33 34 39 43 40 34 36
51 51 51 51 52 52 48 47 53 45 38 45 41 44 46 47 49 44 51 52 46 49 56 54 52 51 51 50 49 51 43 39 36 34 37 26 33 45 45 43 43 43 40 39
50 51 50 51 51 52 48 49 50 49 38 47 48 45 47 49 51 47 48 50 51 54 49 41 38 39 40 43 47 48 49 40 32 31 34 32 36 42 42 40 38 44 41 41
49 49 50 50 51 52 49 48 54 52 43 44 53 47 49 45 45 39 44 50 54 51 45 41 33 31 37 37 42 50 49 45 36 35 30 28 34 44 47 47 31 44 44 41
49 49 49 50 51 51 49 48 52 50 41 52 54 47 47 51 46 42 45 44 45 50 41 35 35 36 47 37 35 34 36 35 31 32 31 33 39 41 44 29 30 44 45 44
50 50 50 50 50 50 49 46 53 51 45 51 56 57 51 49 48 38 42 41 43 41 37 38 40 39 43 42 45 40 36 34 32 35 31 27 40 37 31 37 43 43 42 39
49 49 50 51 50 50 50 44 52 55 50 42 55 57 61 58 56 48 45 44 43 45 41 44 45 40 43 43 34 48 35 41 34 32 30 36 36 37 42 44 39 39 37 38
48 50 50 50 51 50 50 47 49 49 42 43 47 46 54 58 57 59 43 48 51 50 53 48 45 40 47 37 40 42 43 47 35 35 33 34 35 37 38 39 37 38 39 39
49 48 49 49 49 50 53 50 53 53 49 36 37 52 51 58 59 59 58 55 55 54 53 47 43 41 49 41 43 41 43 44 37 32 34 35 35 35 36 36 37 38 40 41
50 51 51 51 52 54 56 56 56 59 49 37 37 48 53 57 57 56 55 54 50 49 46 44 42 46 46 45 43 39 45 40 35 33 37 38 33 35 36 34 33 36 38 38
50 51 52 53 53 55 52 38 52 56 54 41 33 47 49 54 55 53 52 52 52 52 49 46 47 51 46 38 36 41 44 46 45 38 39 34 34 35 35 33 34 37 38 39
49 50 52 52 51 53 48 45 52 58 59 43 36 35 49 53 52 51 50 53 52 52 49 46 47 46 47 40 36 40 42 43 41 41 38 32 35 33 36 37 40 40 40 39
49 50 50 50 50 52 50 49 51 51 56 52 37 35 40 52 44 42 52 47 49 49 47 48 46 46 45 36 41 42 42 41 39 41 45 40 40 38 40 40 39 36 35 35
49 50 51 55 55 50 50 46 50 61 54 41 39 34 31 49 45 46 48 50 40 48 42 45 47 41 35 40 40 40 41 40 40 42 42 41 39 39 38 38 38 35 33 34
51 54 47 36 46 45 47 51 46 49 51 50 40 44 34 45 43 41 42 45 39 35 41 47 40 36 46 48 46 44 44 44 43 38 36 38 37 36 37 36 37 35 33 31
49 41 40 49 48 52 49 37 40 42 38 44 45 44 40 49 39 38 45 39 40 33 37 38 35 34 41 47 46 46 46 46 45 45 44 43 41 37 36 36 35 33 31 28
49 49 52 53 47 43 36 34 39 40 34 42 40 43 45 44 49 40 41 36 38 30 43 35 32 37 44 44 43 44 46 46 45 46 44 42 41 39 36 34 32 31 28 22
54 46 36 43 39 32 32 27 32 31 37 39 40 37 42 44 43 37 37 32 31 40 32 32 35 40 44 42 42 41 44 43 41 40 40 40 38 38 35 28 24 23 20 20
41 35 30 33 31 33 32 35 35 38 40 40 41 40 39 39 34 34 32 35 37 30 28 32 36 39 39 38 37 35 32 33 32 32 30 26 25 23 23 22 22 19 18 19
36 38 29 30 34 35 35 38 40 43 44 43 41 41 41 36 31 36 34 30 29 33 32 32 36 37 36 35 33 32 30 29 29 28 25 23 22 22 21 22 22 22 19 18
38 36 32 36 33 32 33 34 35 45 44 46 45 39 33 32 34 32 31 32 31 32 32 33 35 33 33 32 32 32 32 31 29 27 24 23 22 22 23 24 23 21 20 18
36 32 34 34 33 32 33 36 39 45 42 35 41 32 31 39 34 32 38 31 31 32 32 34 34 32 32 32 31 30 31 30 28 26 26 25 26 25 24 22 22 24 24 22

GFSNW_sfc_temp_129.txt.gz
Temp
52 53 53 53 53 52 50 41 34 44 49 34 35 30 40 47 46 51 49 48 45 40 39 38 34 37 46 53 51 45 46 40 34 40 52 54 52 47 44 28 28 27 27 21
52 52 53 53 53 52 45 38 36 45 46 30 31 36 41 43 44 45 45 44 46 40 33 29 37 39 51 52 51 45 46 36 28 35 44 49 46 47 45 39 33 24 17 18
52 52 52 52 53 53 46 36 29 35 39 39 34 35 35 37 47 45 47 46 47 39 34 39 32 37 48 49 50 48 47 39 33 26 32 37 34 37 43 35 20 24 26 27
51 51 52 52 52 53 43 38 32 36 28 31 34 35 38 35 35 46 46 42 43 38 31 33 33 41 44 48 48 47 43 30 36 37 40 40 39 34 38 35 34 30 28 27
51 51 52 51 52 52 43 34 33 37 35 37 34 35 34 35 40 41 40 39 43 43 35 35 34 41 39 39 45 42 43 29 31 29 39 38 34 32 33 36 35 32 33 28
50 51 51 51 51 51 42 44 42 39 37 33 31 32 35 37 42 44 47 43 41 40 42 46 43 44 45 47 43 39 37 32 30 28 39 35 30 32 31 36 38 37 29 32
50 51 50 51 51 51 45 45 44 36 30 36 35 39 37 36 39 39 45 46 41 44 50 49 46 46 48 47 46 47 38 36 33 28 31 21 32 43 41 41 43 37 34 33
50 50 50 50 51 51 45 46 43 38 32 39 40 40 40 39 41 42 44 46 48 49 44 36 33 34 37 40 45 45 45 36 29 25 26 30 35 40 39 39 35 39 35 33
49 49 50 50 50 51 46 47 48 41 35 36 44 41 42 36 35 37 43 48 46 45 37 32 25 25 32 33 37 46 44 41 30 28 25 21 30 37 43 44 27 41 39 34
49 49 49 49 50 51 47 46 49 42 35 42 43 39 40 44 38 34 36 41 41 43 32 29 28 28 41 32 32 31 33 33 29 28 26 28 36 38 41 27 26 42 43 40
48 48 49 49 50 51 48 46 50 44 39 42 46 47 41 43 43 32 39 37 37 36 30 31 31 30 35 36 41 37 33 29 28 28 26 23 37 35 30 34 38 35 35 33
48 48 49 49 49 50 50 43 50 50 42 39 48 48 49 51 50 39 40 37 39 38 34 35 36 32 33 38 28 44 31 35 30 29 27 33 36 36 39 40 33 32 32 32
47 48 49 49 49 50 49 45 47 46 40 40 40 42 48 55 52 54 37 40 45 43 45 38 37 34 38 30 30 35 39 42 30 29 32 32 35 37 38 37 35 35 34 32
46 48 48 49 49 50 50 44 48 46 41 33 36 48 45 52 53 51 51 49 50 48 44 39 35 33 41 32 34 34 37 38 32 29 32 33 34 35 35 35 37 35 35 34
48 48 49 50 50 50 49 48 48 51 42 33 34 43 49 52 52 50 51 49 45 42 39 36 35 37 37 37 37 33 38 34 27 26 32 31 32 34 36 33 33 34 34 33
49 49 50 50 50 50 45 39 47 52 48 37 31 41 44 48 50 48 47 48 44 41 39 37 38 46 38 29 27 37 39 40 39 31 34 33 34 35 34 32 33 34 34 37
48 48 49 49 49 47 41 38 45 50 49 37 32 33 44 49 48 45 44 47 43 42 39 37 38 38 40 29 28 38 38 37 35 35 34 31 33 32 36 35 35 38 38 37
49 50 50 51 52 52 46 49 52 52 46 43 31 32 36 48 39 37 43 39 40 40 39 39 37 38 37 27 35 38 38 39 37 36 41 36 38 37 34 37 37 34 33 32
51 52 52 52 49 43 44 48 50 51 45 34 32 29 27 44 39 39 39 41 31 40 33 35 37 30 27 34 36 36 37 37 37 40 37 36 33 33 34 35 34 31 29 30
50 48 40 33 40 48 48 45 38 41 43 43 33 37 31 40 36 34 34 35 30 27 33 38 29 28 39 41 40 39 40 42 42 35 33 32 32 32 31 32 31 30 28 24
43 36 35 42 47 45 40 30 31 33 30 36 36 39 35 42 32 30 35 30 31 27 30 29 26 26 31 40 39 39 43 43 40 39 36 35 34 31 30 30 30 28 27 23
44 44 46 44 39 34 31 26 31 30 29 35 34 36 37 37 40 31 33 29 29 25 32 26 22 29 37 38 37 38 40 42 41 40 37 34 34 31 30 30 28 26 24 20
45 40 35 36 32 25 24 20 25 25 30 35 36 32 34 36 35 29 30 26 23 30 22 22 27 32 37 36 37 36 38 38 37 36 35 35 33 31 28 20 20 20 18 16
34 31 25 27 24 27 29 29 29 31 35 36 35 31 31 30 28 29 25 27 29 22 17 26 30 33 32 34 34 33 27 32 30 29 27 24 22 17 17 18 17 17 15 13
32 32 23 26 29 31 29 30 34 36 36 34 33 32 33 27 28 29 28 26 20 24 22 29 32 31 30 31 31 28 23 22 22 20 20 18 18 18 14 13 15 15 12 11
33 32 27 28 26 31 33 33 34 35 32 33 34 30 25 26 27 26 23 26 21 27 29 31 32 29 30 30 29 29 26 23 21 18 18 17 17 17 15 16 14 10 12 10
32 30 32 28 32 31 32 34 32 35 33 27 30 25 27 31 26 26 28 26 28 29 30 31 32 31 30 30 28 28 25 24 21 18 19 19 21 21 20 16 14 19 18 15